This demonstration page uses our WeatherBlox Daily Observations layout. Learn more.

Left ArrowRight Arrow

Hourly Observations for August 6, 2015

Temp ( °F °C ) Dew Point ( °F °C ) Humidity (%) Winds ( mph kmh ) Pressure ( in mb ) Visibility ( mi km ) Precip ( " mm )
12:15 am 00:15 Clear 70 20.9 67 19.3 91 91 SSE 6 9 29.88 1012 10 16 N/A
12:35 am 00:35 Clear 69 20.7 67 19.3 92 92 SSE 8 13 29.88 1012 10 16 N/A
12:55 am 00:55 Clear 69 20.5 67 19.3 93 93 SSE 6 9 29.88 1012 10 16 N/A
1:15 am 01:15 Clear 69 20.5 67 19.5 94 94 SE 9 15 29.85 1011 10 16 N/A
1:35 am 01:35 Clear 69 20.5 67 19.3 93 93 SSE 10 17 29.85 1011 7 11 N/A
1:55 am 01:55 Clear 69 20.4 67 19.4 94 94 SSE 9 15 29.83 1010 7 11 N/A
2:15 am 02:15 Clear 69 20.5 67 19.5 94 94 SSE 10 17 29.83 1010 7 11 N/A
2:35 am 02:35 Clear 69 20.6 67 19.6 94 94 SSE 8 13 29.83 1010 7 11 N/A
2:55 am 02:55 Clear 69 20.5 67 19.5 94 94 SSE 9 15 29.83 1010 7 11 N/A
3:15 am 03:15 Clear 69 20.5 67 19.5 94 94 S 7 11 29.83 1010 7 11 N/A
3:35 am 03:35 Clear 68 20.2 67 19.2 94 94 SE 5 7 29.85 1011 7 11 N/A
3:55 am 03:55 Clear 69 20.3 67 19.3 94 94 SE 8 13 29.83 1010 7 11 N/A
4:15 am 04:15 Clear 69 20.5 67 19.5 94 94 E 8 13 29.83 1010 7 11 N/A
4:35 am 04:35 Clear with Mist and Fog 69 20.3 67 19.2 93 93 SE 3 6 29.85 1011 5 8 N/A
4:55 am 04:55 Mostly Cloudy with Mist and Fog 69 20.3 67 19.3 94 94 SE 3 6 29.85 1011 5 8 N/A
5:15 am 05:15 Mostly Cloudy with Mist and Fog 68 20 66 19.1 95 95 E 9 15 29.83 1010 3 5 N/A
5:35 am 05:35 Mostly Cloudy with Mist and Fog 67 19.7 66 19 96 96 E 7 11 29.83 1010 3 4 N/A
5:55 am 05:55 Cloudy with Mist and Fog 68 20 67 19.2 95 95 NE 5 7 29.85 1011 3 5 N/A
6:15 am 06:15 Cloudy with Light Rain 68 20.1 67 19.5 96 96 ESE 9 15 29.83 1010 2 3 N/A
6:35 am 06:35 Cloudy with Mist and Fog 68 20.2 67 19.5 96 96 ESE 8 13 29.83 1010 3 4 N/A
6:55 am 06:55 Cloudy with Light Rain 68 20.2 67 19.5 96 96 SE 14 22 29.83 1010 2 3 0.01 0.25
7:15 am 07:15 Cloudy with Nearby Thunderstorms 69 20.5 67 19.7 95 95 Calm 29.91 1013 3 4 N/A
7:35 am 07:35 Cloudy 69 20.5 68 19.8 96 96 E 3 6 29.91 1013 3 4 0.02 0.51
7:55 am 07:55 Cloudy 69 20.6 68 20 96 96 ESE 12 19 29.88 1012 2 3 0.06 1.52
8:15 am 08:15 Cloudy with Light Rain 69 20.7 68 20 96 96 SSE 9 15 29.88 1012 3 4 0.02 0.51
8:35 am 08:35 Cloudy with Mist and Fog 69 20.8 68 20.1 96 96 SE 6 9 29.91 1013 3 5 0.02 0.51
8:55 am 08:55 Cloudy with Rain 69 20.7 68 20 96 96 SE 17 28 29.83 1010 3 5 0.03 0.76
9:15 am 09:15 Cloudy with Light Rain 70 20.9 68 20 95 95 SSE 17 28 29.83 1010 4 6 N/A
9:35 am 09:35 Cloudy with Mist and Fog 70 21.1 69 20.3 95 95 S 17 28 29.83 1010 4 6 N/A
9:55 am 09:55 Cloudy with Mist and Fog 71 21.6 69 20.6 94 94 SSE 18 30 29.83 1010 5 8 0.00 0.00
10:15 am 10:15 Cloudy with Mist and Fog 71 21.5 68 20.1 92 92 SSE 16 26 29.83 1010 5 8 N/A
10:35 am 10:35 Cloudy 70 21.1 68 19.9 93 93 SSW 8 13 29.85 1011 5 8 N/A
10:55 am 10:55 Cloudy 70 21.1 67 19.7 92 92 E 9 15 29.91 1013 2 2 0.21 5.33
11:15 am 11:15 Cloudy with Rain 67 19.7 66 18.7 94 94 ENE 18 30 29.88 1012 3 4 0.18 4.57
11:35 am 11:35 Cloudy 68 20.2 67 19.2 94 94 E 16 26 29.91 1013 7 11 0.19 4.83
11:55 am 11:55 Cloudy 69 20.4 67 19.4 94 94 ENE 13 20 29.91 1013 7 11 0.19 4.83
12:15 pm 12:15 Cloudy 68 20 66 19 94 94 SE 22 35 29.85 1011 1 2 0.26 6.60
12:35 pm 12:35 Mostly Cloudy with Thunderstorms 70 21.1 68 20 93 93 SSE 14 22 29.85 1011 7 11 0.28 7.11
12:55 pm 12:55 Partly Cloudy with Nearby Thunderstorms 72 22.2 68 20 87 87 SSE 13 20 29.85 1011 10 16 0.28 7.11
1:15 pm 13:15 Sunny 73 22.7 68 19.8 84 84 SSE 20 31 29.83 1010 10 16 N/A
1:35 pm 13:35 Sunny 75 23.9 68 20 79 79 S 20 31 29.83 1010 10 16 N/A
2:15 pm 14:15 Sunny 77 24.8 68 20 75 75 S 18 30 29.80 1009 10 16 N/A
3:15 pm 15:15 Sunny 79 26 69 20.5 72 72 SSW 16 26 29.77 1008 10 16 N/A
3:35 pm 15:35 Sunny 79 26.1 69 20.3 70 70 SSW 13 20 29.77 1008 10 16 N/A
3:55 pm 15:55 Sunny 78 25.6 68 20 71 71 SSW 15 24 29.77 1008 10 16 N/A
4:15 pm 16:15 Partly Cloudy 79 26 69 20.5 72 72 SW 15 24 29.77 1008 10 16 N/A
4:35 pm 16:35 Mostly Cloudy 79 25.9 69 20.8 74 74 WSW 12 19 29.77 1008 10 16 N/A
6:15 pm 18:15 Partly Cloudy 78 25.3 70 21 77 77 WSW 9 15 29.77 1008 10 16 N/A
10:55 pm 22:55 Clear with Mist and Fog 68 20 67 19.2 95 95 WNW 3 6 29.83 1010 4 6 N/A

Powered by AerisWeather